Location: Altschweier
(48.6995°N, 8.1623°E)
Time: 13:04:48
(UTC+00:00)

Daily predictions for brighter satellites

Satellite Brightness Start Highest point End
(mag) Time Altitude Azimuth Time Altitude Azimuth Time Altitude Azimuth
BREEZE-M DEB (TANK) 4.0 19:25:01 10° W 19:29:14 60° S 19:36:35 10° ESE
Cosmos 1666 Rocket 4.1 19:25:38 10° N 19:29:51 42° ENE 19:33:59 10° SSE
USA 307 3.7 19:29:54 10° WNW 19:34:03 49° NNE 19:38:14 10° E
Cosmos 1437 4.3 19:34:07 10° SE 19:35:49 15° E 19:37:32 10° NE
Cosmos 968 Rocket 3.9 19:32:48 10° SSW 19:38:02 72° WNW 19:43:17 10° NNE
NOSS 3-3 (A) 4.3 19:33:34 10° S 19:38:51 40° ESE 19:44:47 10° NE
NOSS 3-3 (C) 4.3 19:33:41 10° S 19:38:58 39° ESE 19:44:54 10° NE
ATLAS 2AS CENTAUR R/B 4.1 19:34:21 10° NW 19:41:09 34° NNE 19:47:31 10° E
Intercosmos 24 3.6 19:37:59 10° S 19:41:37 66° E 19:45:14 10° NNE
Cosmos 1354 Rocket 4.2 19:37:06 10° S 19:42:09 54° ESE 19:47:17 10° NNE
Sich 1 3.1 19:39:43 10° N 19:44:04 86° W 19:48:26 10° S
S3M 4.1 19:37:51 10° S 19:44:13 81° E 19:50:34 10° N
USA 245 4.1 19:43:45 10° ESE 19:45:05 14° ENE 19:46:25 10° NNE
SJ 16-02 3.2 19:42:59 10° SE 19:45:12 14° E 19:47:24 10° ENE
OBJECT-B 2.6 19:44:06 10° SSW 19:47:01 31° W 19:49:58 10° NNW
USA 308 3.5 19:43:30 10° WNW 19:47:43 53° NNE 19:51:56 10° E
Meteor 1-26 Rocket 4.4 19:42:37 10° S 19:48:05 51° E 19:53:25 10° NNE
SPOT 1/Viking Rocket 4.1 19:43:19 10° SE 19:48:13 43° ENE 19:53:07 10° N
Cosmos 2315 Rocket 4.3 19:43:54 10° SSE 19:49:59 51° E 19:56:09 10° NNE
Cosmos 1500 4.0 19:49:31 10° N 19:53:00 34° ENE 19:56:07 12° SE
USA 215 4.4 19:47:48 10° ENE 19:53:57 45° N 20:00:06 10° WNW
BREEZE M DEB (TANK) 2.3 19:51:00 10° W 19:57:11 80° N 19:59:36 10° E
Terra 3.5 19:54:29 10° ESE 19:57:51 20° ENE 20:01:14 10° NNE
Cosmos 2082 Rocket 3.3 19:54:02 10° NNW 19:59:02 31° NE 20:03:59 10° ESE
Cosmos 1151 Rocket 3.1 19:58:15 10° S 20:02:32 60° E 20:06:52 10° NNE
X-37B 2.0 19:59:58 10° WSW 20:02:42 26° SSW 20:04:43 14° SSE
SPOT 3 Rocket 3.6 19:57:35 10° SSE 20:02:45 87° ENE 20:07:56 10° NNW
CREW DRAGON DEMO-1 DEB 2.8 20:00:23 10° WNW 20:03:00 62° NNE 20:05:17 13° E
SPOT 5 4.1 19:59:20 11° ESE 20:03:30 31° ENE 20:08:07 10° N
Cosmos 1437 Rocket 4.3 20:00:03 10° SW 20:03:43 40° WNW 20:07:31 10° N
COSMOS 2406 3.5 20:00:05 10° NNW 20:05:42 58° ENE 20:10:34 14° SE
Cosmos 2084 3.5 20:03:01 10° SSW 20:07:02 51° SE 20:11:09 10° NE
Resurs 01 Rocket 1.8 20:02:58 10° S 20:07:24 77° WSW 20:11:53 10° NNW
USA 290 4.0 20:04:58 10° NW 20:07:48 28° WSW 20:10:36 10° SSW
Cosmos 1933 4.0 20:10:17 10° SSW 20:14:15 57° WNW 20:18:14 10° N
Cosmos 1538 Rocket 4.4 20:09:18 10° NNW 20:14:35 54° ENE 20:18:46 16° SE
Cosmos 773 Rocket 4.1 20:12:40 10° NNW 20:18:01 84° WSW 20:22:41 13° SSE
MetOp-B 4.2 20:15:11 10° SSE 20:20:32 86° WSW 20:25:56 10° NNW
Cosmos 1271 Rocket 4.1 20:19:16 18° SE 20:21:07 24° E 20:24:24 10° NE
Cosmos 2278 Rocket 2.5 20:19:57 10° S 20:25:18 46° ESE 20:30:41 10° NE
Cosmos 1602 4.5 20:21:43 10° NNW 20:25:29 50° W 20:29:14 10° S
Spot 2 Rocket 3.6 20:22:06 16° SSE 20:26:11 67° ENE 20:31:12 10° N
BREEZE-M DEB (TANK) 1.0 20:24:25 10° W 20:26:36 75° N 20:27:56 20° E
Landsat 7 4.2 20:23:10 10° S 20:27:52 64° WSW 20:32:38 10° NNW
Cosmos 1782 3.0 20:23:55 10° SSW 20:27:54 73° W 20:31:54 10° N
USA 305 2.9 20:23:58 10° WNW 20:28:15 80° NNE 20:31:23 18° ESE
IGS 5A 4.2 20:24:50 10° S 20:28:51 51° W 20:32:56 10° NNW
Cosmos 1844 Rocket 4.3 20:24:40 10° WSW 20:29:50 38° NW 20:35:04 10° NNE
Cosmos 1242 Rocket 4.0 20:27:13 10° SW 20:30:35 38° WNW 20:33:55 10° N
Cosmos 1515 Rocket 3.7 20:29:37 14° S 20:33:14 57° E 20:37:33 10° NNE
ERS-1 Rocket 3.3 20:30:20 19° SE 20:33:49 53° ENE 20:38:43 10° N
CZ-4C R/B 3.1 20:30:08 10° NW 20:37:19 78° SW 20:43:47 18° SSE
Cosmos 1633 Rocket 3.9 20:35:02 10° NNW 20:39:16 47° W 20:43:29 10° SSW
Meteor 1-11 Rocket 4.2 20:38:17 10° N 20:44:07 52° ENE 20:47:53 22° SE
deb Kosmos-1763 3.9 20:42:43 10° NNW 20:46:17 86° ENE 20:47:57 29° SSE
ATLAS 5 CENTAUR R/B 3.7 20:41:25 10° WNW 20:46:26 32° WSW 20:51:47 11° S
USA 306 2.8 20:43:17 10° WNW 20:47:34 83° SSW 20:49:58 25° SE
Cosmos 1812 2.7 20:47:18 16° S 20:50:20 88° W 20:54:14 10° N
Cosmos 1328 Rocket 4.2 20:46:03 10° SSW 20:50:25 56° WNW 20:54:47 10° N
Cosmos 1470 Rocket 4.0 20:47:10 10° NNW 20:51:37 61° W 20:55:01 17° S
Cosmos 1777 Rocket 4.0 20:47:02 10° SSW 20:52:15 84° WNW 20:57:29 10° NNE
Cosmos 1340 Rocket 4.3 20:50:32 10° N 20:53:59 26° ENE 20:55:28 21° ESE
ARIANE 5 R/B 2.7 20:52:22 21° S 20:55:12 72° WSW 20:59:33 10° NNW
Cosmos 1666 2.6 20:54:56 10° NNW 20:58:41 82° W 21:00:28 29° S
CARTOSAT-1 3.7 20:56:42 22° S 20:59:24 71° WSW 21:03:43 10° NNW
Meteor 2-12 Rocket 4.5 20:55:41 10° N 21:01:44 66° ENE 21:05:22 25° SSE
Cosmos 1833 Rocket 3.1 20:57:55 10° NW 21:03:28 58° WSW 21:07:04 22° S
Meteor 1-5 Rocket 4.4 20:59:17 10° NNW 21:04:37 64° W 21:08:23 19° S
Cosmos 1933 Rocket 3.8 21:01:33 10° NNW 21:05:52 65° W 21:08:25 23° S
Cosmos 2154 Rocket 4.1 20:59:42 10° N 21:06:01 65° ENE 21:09:42 26° SSE
BREEZE-M R/B 1.9 21:04:15 10° W 21:06:40 72° N 21:07:49 29° ENE
Cosmos 923 Rocket 4.1 21:02:14 10° NNW 21:07:29 66° ENE 21:10:12 29° SE
SL-24 DEB 4.4 21:05:35 30° SE 21:07:38 55° E 21:12:08 10° N
Cosmos 1898 Rocket 4.4 21:07:15 26° SE 21:08:39 30° E 21:13:14 10° NE
Cosmos 1536 3.1 21:05:15 10° N 21:09:14 52° ENE 21:10:33 35° SE
Meteor 1-10 Rocket 4.1 21:05:30 18° S 21:09:48 82° E 21:15:30 10° NNE
Cosmos 2184 Rocket 4.0 21:07:13 10° N 21:13:28 81° W 21:17:32 23° S
Cosmos 1743 3.8 21:10:07 10° N 21:13:35 31° ENE 21:14:28 28° E
USA 307 3.0 21:09:57 10° WNW 21:14:11 61° SW 21:15:37 38° SSE
H-2A R/B 3.5 21:12:39 10° NNE 21:16:50 60° ESE 21:18:18 37° SSE
Cosmos 2074 Rocket 4.1 21:11:40 10° NNW 21:17:58 74° W 21:22:14 22° S
NOSS 3-4 (A) 3.9 21:12:35 10° NW 21:19:32 78° SW 21:24:06 27° SSE
NOSS 3-4 (C) 3.9 21:12:42 10° NW 21:19:39 78° SW 21:24:13 27° SSE
Cosmos 990 Rocket 4.3 21:20:01 32° SSE 21:21:57 46° ESE 21:26:58 10° NNE
SJ 16-02 1.5 21:19:30 15° SSW 21:23:09 73° WNW 21:27:36 10° NNE
Nadezhda 1 Rocket 4.0 21:19:51 24° S 21:23:49 74° E 21:30:03 10° NNE
Cosmos 2297 4.4 21:22:46 30° SE 21:24:18 36° ESE 21:29:25 10° NE
Cosmos 1733 Rocket 4.1 21:22:46 10° N 21:26:41 32° ENE 21:27:49 28° ESE
USA 308 3.2 21:23:35 10° WNW 21:27:45 50° SW 21:28:43 41° S
ATLAS 2AS CENTAUR R/B 2.8 21:25:41 10° NW 21:33:10 84° NE 21:37:04 29° SE
Terra 2.0 21:33:01 32° S 21:35:09 64° WSW 21:39:55 10° NNW
Iridium 4 Rocket 4.3 21:30:58 17° SSW 21:35:28 57° W 21:41:19 10° N
USA 215 4.1 21:30:04 10° E 21:36:17 48° NNE 21:42:29 10° WNW
Cosmos 1544 2.9 21:32:55 10° N 21:36:33 75° E 21:37:03 61° SE
SPOT 5 3.9 21:38:33 23° SSW 21:41:22 44° W 21:46:26 10° NNW
ERBS 3.7 21:38:56 10° NW 21:42:01 34° NNE 21:43:15 25° ENE
Cosmos 2082 Rocket 2.6 21:37:56 10° NW 21:43:25 54° WSW 21:45:50 31° S
Cosmos 2112 Rocket 4.0 21:40:47 10° NNW 21:46:11 88° ENE 21:48:11 40° SSE
Cosmos 2181 Rocket 4.5 21:44:37 32° SE 21:46:45 43° E 21:52:29 10° NNE
Cosmos 2228 Rocket 3.5 21:45:34 27° SSW 21:47:49 58° WNW 21:52:15 10° N
Cosmos 44 3.5 21:44:32 10° NW 21:50:01 85° NE 21:51:59 40° SE
Cosmos 2366 rocket 4.4 21:47:26 10° N 21:53:26 50° ENE 21:55:56 33° SE
Spot 4 4.3 21:55:19 37° ESE 21:56:48 50° ENE 22:01:30 10° N
Cosmos 1271 Rocket 4.4 21:54:20 16° SW 21:56:57 31° WNW 22:00:35 10° N
Cosmos 2084 Rocket 3.6 21:53:52 10° NW 21:58:07 70° NE 21:59:14 47° ESE
Cosmos 2341 Rocket 4.0 21:54:57 10° N 22:01:24 85° E 22:04:08 38° SSE
BREEZE-M DEB (TANK) 3.7 21:55:18 10° W 22:01:41 48° N 22:03:25 19° ENE
Meteor 1-27 Rocket 4.1 21:58:45 23° SSW 22:02:28 63° WNW 22:08:22 10° N
Cosmos 1515 3.6 22:04:29 68° ESE 22:04:32 68° E 22:08:18 10° NNE
USA 305 4.3 22:04:19 10° WNW 22:07:27 25° SW 22:07:27 25° SW
Cosmos 2278 Rocket 3.7 22:04:20 10° WSW 22:09:32 36° NW 22:14:44 10° NNE
Cosmos 1937 Rocket 3.4 22:09:31 48° S 22:10:53 70° ESE 22:16:03 10° NNE
Cosmos 1862 Rocket 3.5 22:10:40 56° ESE 22:11:04 60° E 22:15:20 10° NNE
SL-24 R/B - RUBIN 2 4.0 22:06:31 10° NW 22:11:59 67° SW 22:13:07 50° S
Cosmos 1680 Rocket 4.0 22:08:07 10° NNW 22:13:15 50° WSW 22:14:52 37° SSW
Cosmos 1943 Rocket 2.2 22:13:55 45° S 22:15:30 64° ESE 22:21:04 10° NNE
Cosmos 2218 Rocket 4.0 22:09:36 10° N 22:15:54 74° E 22:18:16 41° SSE
Cosmos 2369 Rocket 2.8 22:17:10 36° ESE 22:17:45 37° ESE 22:22:55 10° NE
Gbstr 26 Del rocket 4.0 22:13:03 10° WNW 22:20:30 85° SSW 22:23:48 31° ESE
Meteor 1-19 Rocket 4.1 22:19:24 48° SSE 22:20:48 69° E 22:26:11 10° NNE
Cosmos 1238 Rocket 3.7 22:17:10 10° N 22:23:27 79° W 22:25:13 46° S
Gblst 52 Del rocket 4.5 22:18:39 10° WNW 22:25:42 89° NNE 22:29:37 24° ESE
Cosmos 858 Rocket 4.4 22:24:21 46° SSW 22:25:56 88° ESE 22:31:12 10° NNE
Meteor 2-9 Rocket 4.2 22:21:02 10° NNW 22:26:52 89° W 22:28:36 48° S
Okean 1 3.3 22:29:36 69° WSW 22:29:55 74° W 22:33:55 10° N
Cosmos 1340 Rocket 4.1 22:26:49 10° NNW 22:30:27 31° W 22:31:03 30° WSW
Okean 1-7 4.0 22:31:00 33° E 22:31:00 33° E 22:34:48 10° NNE
Cosmos 1818 3.6 22:27:30 10° NW 22:32:59 69° SW 22:34:12 52° S
Cosmos 1707 Rocket 4.4 22:32:59 34° WSW 22:34:17 44° WNW 22:38:32 10° N
Cosmos 1656 Rocket 4.5 22:35:34 32° ESE 22:35:52 33° ESE 22:40:43 10° NE
DNEPR-1 R/B 3.9 22:34:46 38° SSW 22:37:02 85° SE 22:41:59 10° NE
SL-8 Rocket 4.1 22:32:58 10° NNW 22:39:15 67° W 22:41:32 40° SSW
ALOS 2 2.5 22:41:06 65° SE 22:41:36 74° ENE 22:46:00 10° N
Meteor 2-4 Rocket 3.7 22:47:05 50° SSE 22:48:30 70° E 22:54:05 10° NNE
Cosmos 1743 4.5 22:46:09 10° NW 22:49:11 22° W 22:49:32 22° W
Cosmos 1898 Rocket 4.4 22:47:28 22° WSW 22:50:33 45° WNW 22:55:41 10° NNE
SL-27 R/B 3.7 22:51:02 10° N 22:53:51 34° NE 22:53:51 34° NE
SL-08 R/B 4.4 22:50:14 10° N 22:56:29 84° E 22:58:29 47° SSE
BREEZE-M DEB (TANK) 4.2 22:41:36 10° WNW 22:56:53 71° SSW 22:58:41 43° SE
Cosmos 1975 3.3 22:56:41 10° NNW 23:00:28 49° W 23:00:28 49° W
SJ 16-02 4.3 23:00:53 10° WNW 23:02:35 12° NW 23:04:18 10° NNW
RESURS DK-1 2.4 22:59:06 10° NNW 23:03:17 69° ENE 23:03:31 67° E
Cosmos 1733 Rocket 4.4 23:00:45 10° NNW 23:04:23 27° W 23:04:54 26° WSW
Cosmos 2150 Rocket 4.3 23:04:29 49° SE 23:05:08 52° ESE 23:10:17 10° NNE
Cosmos 1833 4.2 23:01:47 10° NNW 23:07:34 78° ENE 23:09:22 46° SE
Cosmos 1461 3.2 23:07:22 57° WSW 23:08:16 78° NW 23:12:54 10° NE
Cosmos 372 Rocket 4.0 23:07:02 48° SW 23:08:22 70° WNW 23:13:29 10° NNE
SeaSat 1 3.3 23:04:05 10° NE 23:08:32 33° ESE 23:08:32 33° ESE
Cosmos 2242 Rocket 3.4 23:09:01 78° S 23:09:19 90° SSE 23:13:49 10° N
Meteor 1-12 Rocket 4.4 23:05:08 10° N 23:11:02 70° ENE 23:12:43 47° SE
ISS -1.5 23:18:16 19° ENE 23:18:16 19° ENE 23:19:21 10° ENE
Cosmos 468 4.4 23:12:13 10° NNW 23:17:31 81° WSW 23:18:27 61° S
USA 215 3.2 23:13:57 18° ESE 23:18:58 86° NNE 23:25:33 10° NW
Cosmos 494 Rocket 3.9 23:13:48 10° NNW 23:19:03 81° ENE 23:20:07 56° SE
Cosmos 1908 Rocket 4.0 23:15:07 10° NNW 23:19:27 49° W 23:19:43 48° WSW
Cosmos 1300 Rocket 4.2 23:16:50 10° N 23:21:05 45° ENE 23:21:41 42° E
Okean 2 Rocket 4.0 23:19:03 10° N 23:23:10 38° ENE 23:23:56 35° E
ATLAS 2AS CENTAUR R/B 3.9 23:17:38 10° WNW 23:23:16 25° WSW 23:24:29 24° SW
Nimbus 7 Rocket 4.3 23:18:57 10° NNE 23:24:52 90° NW 23:26:37 49° SSW
Cosmos 1867 3.5 23:25:56 58° S 23:26:57 75° SE 23:32:26 10° NE
Cosmos 1125 Rocket 3.5 23:26:49 56° SSE 23:27:33 63° ESE 23:32:42 10° NNE
Cosmos 44 Rocket 3.8 23:23:58 10° NW 23:29:11 61° NE 23:31:23 33° ESE
SAR-Lupe-2 4.4 23:29:39 10° N 23:32:57 44° WNW 23:32:57 44° WNW
Cosmos 1378 3.3 23:34:53 69° N 23:34:53 69° N 23:38:12 10° N
ATLAS CENTAUR R/B 1.8 23:38:29 45° ENE 23:38:29 45° ENE 23:41:23 10° NE
Cosmos 2344 4.3 23:30:17 10° NW 23:39:27 87° SW 23:51:07 13° SE
Cosmos 1821 Rocket 4.2 23:33:10 10° NNW 23:39:30 64° W 23:41:25 44° SSW
Cosmos 1934 Rocket 3.9 23:34:00 10° N 23:40:11 78° E 23:42:10 45° SSE
USA 281 4.1 23:36:59 12° ESE 23:42:38 45° NE 23:48:48 10° NNW
USA 81 4.5 23:43:49 10° N 23:49:02 55° E 23:50:37 40° SE
Cosmos 1703 Rocket 4.4 23:48:52 37° W 23:49:29 39° WNW 23:53:37 10° N
Okean 3 3.5 23:50:46 67° W 23:50:58 68° W 23:55:13 10° N
Cosmos 1782 Rocket 4.2 23:47:02 10° NNW 23:51:15 41° W 23:51:22 41° W
Lacrosse 5 3.0 23:54:51 29° ESE 23:54:51 29° ESE 23:58:48 10° ENE
